Home > Weather > Güstrow > Past weeks

Flag for Germany Weather for the Past 2 Weeks in Güstrow, Mecklenburg-Western Pomerania, Germany

Now
43 °F

Passing clouds.


Feels Like: 40 °F
Forecast: 40 / 48 °F
Wind: 5 mph from South

Location: Laage

Current Time: Feb 7, 2016 at 1:29:10 AM

Latest Report: Feb 7, 2016 at 12:20 AM


Visibility: N/A

Pressure: 29.68 "Hg

Humidity: 87%

Dew point: 39 °F

Location of GüstrowLocation

Historic Weather in Güstrow — Graph

°F

Güstrow Temperature Yesterday

Maximum temperature yesterday: 50 °F (at 2:20 PM)
Minimum temperature yesterday: 43 °F (at 12:20 AM)
Average temperature yesterday: 46 °F

High & Low Weather Summary for the Past Weeks

 TemperatureHumidityPressure
High52 °F (Jan 27, 5:20 PM)100% (Jan 23, 1:20 PM)30.42 "Hg (Jan 23, 1:20 PM)
Low23 °F (Jan 22, 11:20 PM)57% (Feb 2, 4:20 PM)29.50 "Hg (Jan 30, 4:20 PM)
Average41 °F88%29.92 "Hg
* Reported Jan 22 11:20 PM — Feb 6 11:20 PM, Güstrow, Weather by CustomWeather, © 2016

Note: Actual official high and low records may vary slightly from our data, if they occured in-between our weather recording intervals... More about our weather records

Advertising

Güstrow Weather History for the Previous 24 Hours

 ConditionsComfort  
Time TempWeatherWind HumidityBarometerVisibility
11:20 PM
Sat, Feb 6
43 °FPartly cloudy.6 mph87%29.68 "HgN/A
10:20 PM43 °FPassing clouds.5 mph93%29.71 "HgN/A
9:20 PM43 °FPassing clouds.3 mph93%29.71 "HgN/A
8:20 PM45 °FPassing clouds.6 mph87%29.74 "HgN/A
7:20 PM46 °FPassing clouds.6 mph82%29.74 "HgN/A
6:20 PM46 °FPartly cloudy.7 mph82%29.77 "HgN/A
5:20 PM46 °FPassing clouds.6 mph87%29.77 "HgN/A
4:20 PM48 °FPartly sunny.7 mph82%29.80 "HgN/A
3:20 PM50 °FScattered clouds.9 mph76%29.80 "HgN/A
2:20 PM50 °FScattered clouds.8 mph76%29.80 "HgN/A
1:20 PM48 °FPartly sunny.8 mph82%29.86 "HgN/A
12:20 PM48 °FBroken clouds.8 mph82%29.86 "HgN/A
11:20 AM48 °FBroken clouds.12 mph82%29.89 "HgN/A
10:20 AM46 °FPartly sunny.10 mph87%29.89 "HgN/A
9:20 AM46 °FPartly sunny.7 mph87%29.92 "HgN/A
8:20 AM45 °FPartly sunny.7 mph93%29.95 "HgN/A
7:20 AM45 °FPassing clouds.8 mph93%29.95 "Hg4 mi
6:20 AM45 °FPassing clouds.7 mph100%29.95 "Hg4 mi
5:50 AM45 °FFog.8 mph100%29.95 "Hg3 mi
4:20 AM45 °FFog.7 mph100%29.98 "Hg2 mi
3:50 AM45 °FFog.7 mph100%29.98 "Hg2 mi
3:20 AM45 °FFog.6 mph100%29.98 "Hg1 mi
2:48 AM45 °FDrizzle. Fog.7 mph93%30.01 "Hg1 mi
2:20 AM45 °FDrizzle. Fog.6 mph93%30.01 "Hg1 mi
1:20 AM43 °FDrizzle. Fog.6 mph100%30.01 "Hg1 mi
Weather by CustomWeather, © 2016

See weather overviewHow to use our weather pages